STARLINK-35265, 65748

Orbit data source: Space-Track

STARLINK-35265, 65748 is a payload satellite owned by SpaceX/Seattle (US) in LEO that was launched on Thu, 25 Sep 2025 UTC via an FALCON 9 launch vehicle from the Air Force Eastern Test Range (AFETR). Payload-class satellites include a variety of spacecraft equipped with specific instruments for various scientific and technological missions. These include communications satellites like Starlink; space stations such as the ISS; scientific satellites like the Hubble; Earth observation satellites from companies like Planet Labs, Umbra, and HawkEye 360; GPS; miniature CubeSats for education and research; and military/defense satellites.

Loading next visibility...
Identifier
65748, 2025-216Q
Orbit
LEO
Country
Flag of USUS
Related business
Manufacturer
SpaceX/Seattle
Mission
Operational Commercial Communications
Bus & Motor
STARLINK V2MO, Unknown motor
Mass
575 kg wet, ~530 kg dry
Launch date (UTC)
2025-09-25 (9 months ago)
Launch vehicle
FALCON 9
Launch site
Air Force Eastern Test Range (AFETR)
Object type
Payload
Rocket body
Debris
Shape & HBR
Box + 2 Pan, 17.7 m
Radar Cross Section
36.964 m², Large (>1 m²)

Expand to show TLE details & history
Last TLE update: 10 hours ago

TLE from 10 hours ago
0 STARLINK-35265
1 65748U 25216Q   26171.43585022  .00009509  00000-0  33267-3 0  9999
2 65748  53.1582 215.7061 0001140  87.5135 272.5996 15.30209315 41197
Epoch: 2026-06-20T10:27Z
TLE epoch observation values (Epoch: 2026-06-20T10:27:37.459Z)
Latitude
-0.00007°
Longitude
150.14947°
Altitude
476.051 km
Speed
7.629 km/s
True Right ascension
14h 22m 49s
True Declination
0° 00' 00"
Sunlit
Object was in full shadow at epoch
Visualization orbit readout
Latitude
Unknown
Longitude
Unknown
Altitude
Unknown
Speed
Unknown
Apparent Right ascension
Unknown
Apparent Declination
Unknown
Sunlit
N/A
Visualization observer readout
Local Sidereal Time
07:12:21
Azimuth
Unknown
Elevation
Unknown
Doppler factor
Unknown
Orbital elements
Apogee altitude
476.225 km
Perigee altitude
474.663 km
Semi-major axis
6,853.581 km
Eccentricity
0.00011
Inclination
53.1582°
RAAN
215.7061°
Arg. of periapsis
87.5135°
True anomaly
272.58655°
Mean anomaly
272.5996°
Eccentric anomaly
272.59307°
Mean motion
3.82531 °/min
Orbital period
94.11 mins
BSTAR
0.00033267
Loading maneuver chart data...
Computing Atmospheric mass density...
Loading historical data...
Loading historical data...
Loading historical data...
Loading historical data...
Loading historical data...
Loading historical data...
Loading historical data...

Documentation

Showing up to 5 results
|